Huvudsida
METAR-TAF:

METAR-TAF

Flygplatser :

Ventspils lidosta

Ventspils, Lettland

latitud: 57-21-28N, longitud: 021-32-39E, höjd: 6 m

Aktuellt väderrapport

Denna rapport gjordes för 24 minuter sedan, klockan 12:50 UTC
Vind 8 kt från väst/sydväst, varierande mellan sydväst och väst/nordväst
Temperatur 22°C
Fuktighet 69%
Tryck 1014 hPa
Sikt 10 km eller mer
Inga moln under 1 500 m eller inga cumulonimbus

METAR: EVVA 171250Z AUTO 25008KT 220V290 CAVOK 22/16 Q1014

Tid: 16:14 (13:14 UTC)


TAF: saknas

Aktuella väderrapporter och prognoser från 4000 flygplatser (METAR- och TAF-rapporter).

De tillgängliga stationerna syns som gula och röda prickar på kartan.

För musen över prickarna för att se namnen på stationerna.

Klicka sedan för att få väderrapporter och prognoser.

För att ändra kartan: Klicka på de gröna knapparna med ett svart kors på för att zooma in; den gröna knappen med ett streck på för att zooma ut; eller på de gröna pilarna för angränsande kartor.


METAR-TAF: